Change the Weather History Date:

Sunday, January 12, 2014

  Actual Average Record
Temperature  
Mean Temperature 52 °F -  
Max Temperature 63 °F 55 °F 79 °F (1950)
Min Temperature 39 °F 37 °F 20 °F (1981)
Degree Days  
Heating Degree Days 12    
Growing Degree Days 2 (Base 50)    
Moisture  
Dew Point 38 °F    
Average Humidity 60    
Maximum Humidity 86    
Minimum Humidity 30    
Precipitation  
Precipitation 0.00 in - - ()
Sea Level Pressure  
Sea Level Pressure 30.12 in    
Wind  
Wind Speed 7 mph (WNW)    
Max Wind Speed 10 mph    
Max Gust Speed -    
Visibility 10 miles    
Events      
Averages and records for this station are not official NWS values.
T = Trace of Precipitation, MM = Missing Value Source: NWS Daily Summary

Daily Weather History Graph

Daily Weather History Graph

Search for Another Location

Airport or City:

Trip Planner

Search our weather history database for the weather conditions in past years. The results will help you decide how hot, cold, wet, or windy it might be!

Date:

Astronomy

Jan. 12, 2014 Rise Set
Actual Time 7:25 AM EST 5:37 PM EST
Civil Twilight 6:58 AM EST 6:04 PM EST
Nautical Twilight 6:28 AM EST 6:34 PM EST
Astronomical Twilight 5:58 AM EST 7:04 PM EST
Moon 3:03 PM EST (1/12) 4:24 AM EST (1/12)
Length of Visible Light 11h 05m
Length of Day
10h 12m
Waxing Gibbous, 89% of the Moon is Illuminated
Jan 12
Waxing Gibbous
Jan 15
Full
Jan 24
Last Quarter
Jan 30
New
Feb 6
First Quarter

Hourly Weather History & Observations

Time (EST) Temp. Windchill Dew Point Humidity Pressure Visibility Wind Dir Wind Speed Gust Speed Precip Events Conditions
12:56 AM 59.0 °F - 48.9 °F 69% 29.88 in 10.0 mi WNW 9.2 mph - N/A   Overcast
1:56 AM 55.9 °F - 44.1 °F 64% 29.91 in 10.0 mi WNW 8.1 mph - N/A   Clear
2:56 AM 54.0 °F - 42.1 °F 64% 29.94 in 10.0 mi WNW 10.4 mph - N/A   Clear
3:56 AM 52.0 °F - 41.0 °F 66% 29.97 in 10.0 mi WNW 9.2 mph - N/A   Clear
4:56 AM 50.0 °F - 39.9 °F 68% 30.00 in 10.0 mi WNW 8.1 mph - N/A   Clear
5:56 AM 48.9 °F - 39.0 °F 69% 30.02 in 10.0 mi WNW 8.1 mph - N/A   Clear
6:56 AM 48.0 °F - 39.0 °F 71% 30.06 in 10.0 mi WNW 8.1 mph - N/A   Clear
7:56 AM 46.0 °F 43.9 °F 39.0 °F 76% 30.09 in 10.0 mi West 4.6 mph - N/A   Clear
8:56 AM 50.0 °F - 39.0 °F 66% 30.15 in 10.0 mi WNW 10.4 mph - N/A   Clear
9:56 AM 53.1 °F - 39.0 °F 59% 30.19 in 10.0 mi NW 6.9 mph - N/A   Clear
10:56 AM 57.0 °F - 37.9 °F 49% 30.19 in 10.0 mi NW 6.9 mph - N/A   Clear
11:56 AM 59.0 °F - 36.0 °F 42% 30.17 in 10.0 mi NNW 4.6 mph - N/A   Clear
12:56 PM 62.1 °F - 33.1 °F 34% 30.14 in 10.0 mi West 10.4 mph - N/A   Clear
1:56 PM 63.0 °F - 32.0 °F 31% 30.14 in 10.0 mi NNW 9.2 mph - N/A   Clear
2:56 PM 63.0 °F - 30.9 °F 30% 30.14 in 7.0 mi NNW 10.4 mph - N/A   Clear
3:56 PM 63.0 °F - 32.0 °F 31% 30.15 in 7.0 mi NNW 9.2 mph - N/A   Clear
4:56 PM 62.1 °F - 30.9 °F 31% 30.17 in 7.0 mi NW 5.8 mph - N/A   Clear
5:56 PM 54.0 °F - 37.9 °F 55% 30.17 in 10.0 mi Calm Calm - N/A   Clear
6:56 PM 48.0 °F - 37.9 °F 68% 30.19 in 10.0 mi Calm Calm - N/A   Clear
7:56 PM 46.9 °F - 39.0 °F 74% 30.22 in 10.0 mi Calm Calm - N/A   Clear
8:56 PM 44.1 °F 42.5 °F 37.0 °F 76% 30.22 in 10.0 mi West 3.5 mph - N/A   Clear
9:56 PM 42.1 °F - 36.0 °F 79% 30.23 in 10.0 mi Calm Calm - N/A   Clear
10:56 PM 43.0 °F - 39.0 °F 86% 30.23 in 10.0 mi Calm Calm - N/A   Clear
11:56 PM 39.9 °F - 36.0 °F 86% 30.22 in 10.0 mi Calm Calm - N/A   Clear